Regional Weather Roundup
Issued by NWS

Home | Current Version | Previous Version | Graphics & Text | Print | Product List | Glossary Off
Versions: 1 2 3 4 5 6 7 8 9 10 11 12 13 14 15 16 17 18 19 20 21 22 23 24 25 26 27 28 29 30 31 32 33 34 35 36 37 38 39 40 41 42 43 44 45 46 47 48 49 50

000
ASUS43 KMKX 200621
RWRWI

WISCONSIN REGIONAL WEATHER ROUNDUP
NATIONAL WEATHER SERVICE MILWAUKEE/SULLIVAN WI
1200 AM CST MON FEB 20 2017

NOTE: "FAIR" INDICATES FEW OR NO CLOUDS BELOW 12,000 FEET WITH NO
SIGNIFICANT WEATHER AND/OR OBSTRUCTIONS TO VISIBILITY.

WIZ001-002-006>008-014>016-023>028-200700-
NORTHWEST WISCONSIN

CITY           SKY/WX    TMP DP  RH WIND       PRES   REMARKS
SUPERIOR ARPT  MOCLDY    35  33  94 E9G17     29.97F WCI  27
6HR MIN TEMP:  34; 6HR MAX TEMP:  35;

ASHLAND        CLOUDY    34  31  88 NE6       29.99S WCI  29
6HR MIN TEMP:  32; 6HR MAX TEMP:  34;

HAYWARD        CLEAR     49  32  52 SE7       29.96S
6HR MIN TEMP:  40; 6HR MAX TEMP:  52;

SIREN          PTCLDY    50  33  53 SE12      29.88F
6HR MIN TEMP:  50; 6HR MAX TEMP:  52;

CUMBERLAND     MOCLDY    43  32  65 SE6       29.93F
RICE LAKE      MOCLDY    46  33  61 CALM      29.95S
6HR MIN TEMP:  45; 6HR MAX TEMP:  50;

CHETEK         MOCLDY    46  34  63 SE9       29.95S
6HR MIN TEMP:  45; 6HR MAX TEMP:  51;

LADYSMITH      PTCLDY    49  35  59 SE9       29.99F
6HR MIN TEMP:  46; 6HR MAX TEMP:  49;

EAU CLAIRE     CLOUDY    50  36  58 S6        29.95S
6HR MIN TEMP:  49; 6HR MAX TEMP:  54;

MENOMONIE      MOCLDY    45  35  68 SE8       29.94S
6HR MIN TEMP:  42; 6HR MAX TEMP:  48;

NEW RICHMOND   CLOUDY    48  36  63 SE9       29.90S
6HR MIN TEMP:  46; 6HR MAX TEMP:  49;

OSCEOLA        CLOUDY    50  37  60 SE9G16    29.91S
6HR MIN TEMP:  48; 6HR MAX TEMP:  50;

$$

WIZ003>005-009-010-017-018-200700-
NORTH CENTRAL WISCONSIN

CITY           SKY/WX    TMP DP  RH WIND       PRES   REMARKS
MANITOWISH WTR PTCLDY    43  31  63 SE7       30.04R
6HR MIN TEMP:  34; 6HR MAX TEMP:  44;

ARBOR VITAE    CLOUDY    42  32  69 SE9       30.05R
6HR MIN TEMP:  40; 6HR MAX TEMP:  49;

WOODRUFF       CLOUDY    42  32  69 SE9       30.05R
6HR MIN TEMP:  40; 6HR MAX TEMP:  49;

RHINELANDER    CLOUDY    38  32  79 E9        30.06F WCI  31
6HR MIN TEMP:  38; 6HR MAX TEMP:  51;

EAGLE RIVER    PTCLDY    38  29  69 SE5       30.07R WCI  35
6HR MIN TEMP:  35; 6HR MAX TEMP:  44;

LAND O LAKES   CLOUDY    40  31  71 SE7       30.09S WCI  35
6HR MIN TEMP:  37; 6HR MAX TEMP:  43;

PHILLIPS       PTCLDY    44  33  66 SE5       30.01S
6HR MIN TEMP:  38; 6HR MAX TEMP:  48;

TOMAHAWK       PTCLDY    41  32  71 CALM      30.05S
6HR MIN TEMP:  37; 6HR MAX TEMP:  43;

MEDFORD        MOCLDY    44  32  63 SE8G16    30.01F
6HR MIN TEMP:  43; 6HR MAX TEMP:  48;

MERRILL        NOT AVBL
$$

WIZ029-030-035-036-043>047-200700-
CENTRAL WISCONSIN

CITY           SKY/WX    TMP DP  RH WIND       PRES   REMARKS
WAUSAU         PTCLDY    40  32  73 SE13      30.06S WCI  32
6HR MIN TEMP:  40; 6HR MAX TEMP:  51;

MOSINEE        CLOUDY    41  32  70 E10       30.07S
MARSHFIELD     CLOUDY    43  33  68 SE7       30.03S
6HR MIN TEMP:  43; 6HR MAX TEMP:  49;

STEVENS POINT  CLOUDY    38  32  79 E8        30.08R WCI  32
6HR MIN TEMP:  38; 6HR MAX TEMP:  46;

WAUPACA        CLOUDY    39  31  72 CALM      30.11S
6HR MIN TEMP:  39; 6HR MAX TEMP:  49;

WAUTOMA        CLOUDY    39  32  76 NE5       30.09S
6HR MIN TEMP:  38; 6HR MAX TEMP:  49;

WISC RAPIDS    CLOUDY    43  34  70 E8        30.06S
6HR MIN TEMP:  43; 6HR MAX TEMP:  52;

CAMP DOUGLAS   CLOUDY    40  34  79 SE5       30.02F
6HR MIN TEMP:  37; 6HR MAX TEMP:  48;

$$

WIZ011>013-019>022-031-037>040-048>050-200700-
NORTHEAST WISCONSIN

CITY           SKY/WX    TMP DP  RH WIND       PRES   REMARKS
ANTIGO         CLOUDY    36  30  80 SE15      30.10S WCI  26
6HR MIN TEMP:  35; 6HR MAX TEMP:  42;

SHAWANO        CLOUDY    35  31  87 NE3       30.14R
6HR MIN TEMP:  34; 6HR MAX TEMP:  42;

OCONTO         PTCLDY    29  28  94 CALM      30.15R
STURGEON BAY   CLOUDY    37  33  85 E7        30.16R WCI  32
6HR MIN TEMP:  37; 6HR MAX TEMP:  39;

GREEN BAY      CLOUDY    35  31  85 E3        30.14R
6HR MIN TEMP:  34; 6HR MAX TEMP:  45;

MANITOWOC      PTCLDY    31  28  89 MISG      30.16R
6HR MIN TEMP:  31; 6HR MAX TEMP:  39;

APPLETON       CLOUDY    37  28  70 E6        30.10S WCI  33
CLINTONVILLE   MOCLDY    36  30  80 NE3       30.13R
OSHKOSH        PTCLDY    37  29  72 SE3       30.11R
6HR MIN TEMP:  35; 6HR MAX TEMP:  46;

$$

WIZ032>034-041-042-053>061-200700-
SOUTHWEST WISCONSIN

CITY           SKY/WX    TMP DP  RH WIND       PRES   REMARKS
LA CROSSE      CLOUDY    46  36  68 S5        29.98S
6HR MIN TEMP:  46; 6HR MAX TEMP:  59;

SPARTA         CLOUDY    47  37  70 CALM      30.02R
6HR MIN TEMP:  39; 6HR MAX TEMP:  53;

VIROQUA        CLOUDY    49  37  62 CALM      30.00S
6HR MIN TEMP:  49; 6HR MAX TEMP:  53;

BOSCOBEL       CLOUDY    46  35  65 CALM      30.02R
6HR MIN TEMP:  43; 6HR MAX TEMP:  59;

PRAIRIE DU CHI MOCLDY    50  37  59 E6        30.00R
6HR MIN TEMP:  49; 6HR MAX TEMP:  56;

PLATTEVILLE    CLOUDY    44  37  75 SE7       30.04R
6HR MIN TEMP:  44; 6HR MAX TEMP:  53;

$$

WIZ056-057-062-063-064-067-068-200700-
SOUTH CENTRAL WISCONSIN

CITY           SKY/WX    TMP DP  RH WIND       PRES   REMARKS
REEDSBURG      CLOUDY    49  38  64 CALM      30.04S
6HR MIN TEMP:  43; 6HR MAX TEMP:  55;

BARABOO/DELLS  CLOUDY    46  36  67 CALM      30.05S
6HR MIN TEMP:  46; 6HR MAX TEMP:  54;

LONE ROCK      CLOUDY    48  37  65 E7        30.04S
6HR MIN TEMP:  43; 6HR MAX TEMP:  51;

MINERAL POINT  CLOUDY    50  37  62 SE8       30.04R
MADISON        PTCLDY    45  34  65 MISG      30.07R
6HR MIN TEMP:  44; 6HR MAX TEMP:  54;

MIDDLETON      PTCLDY    39  35  86 CALM      30.07S
6HR MIN TEMP:  37; 6HR MAX TEMP:  55;

WATERTOWN      CLOUDY    40  31  70 E8        30.09S WCI  35
6HR MIN TEMP:  40; 6HR MAX TEMP:  48;

MONROE         CLOUDY    46  37  71 SE9       30.05S
JANESVILLE     PTCLDY    41  34  75 E7        30.07S
$$

WIZ051-052-058>065-066-070>072-200700-
SOUTHEAST WISCONSIN

CITY           SKY/WX    TMP DP  RH WIND       PRES   REMARKS
MILWAUKEE      CLOUDY    38  32  79 NW3       30.13S
6HR MIN TEMP:  38; 6HR MAX TEMP:  43;

WAUKESHA         N/A     34  30  86 CALM      30.13S
MILWAUKEE/TIMM CLOUDY    34  30  86 CALM      30.14R
RACINE         CLOUDY    38  33  82 CALM      30.14R
6HR MIN TEMP:  38; 6HR MAX TEMP:  43;

KENOSHA        CLOUDY    37  32  82 CALM      30.12S
6HR MIN TEMP:  33; 6HR MAX TEMP:  45;

FOND DU LAC    PTCLDY    39  29  67 SE8       30.11R WCI  33
6HR MIN TEMP:  39; 6HR MAX TEMP:  50;

SHEBOYGAN      PTCLDY    30  28  92 CALM      30.14R
6HR MIN TEMP:  30; 6HR MAX TEMP:  41; 6HR PCP: TRACE;

WEST BEND      CLOUDY    32  30  93 E3        30.13S
JUNEAU         CLOUDY    40  30  67 E10       30.11S WCI  34
6HR MIN TEMP:  39; 6HR MAX TEMP:  54;

$$

LSZ147-162-200700-
LAKE SUPERIOR

STATION/POSITION TIME  TEMP    WIND        PRES    WAVE
                       AIR SEA DIR/SP/G            HT/PER
                 (UTC) (F)     (DEG/KT/KT) (MB)    (FT/S)
DEVILS ISLAND    0600   36      60/ 10/ 12 1016.8R
PORT WING        0530   34      60/  7/  9 1015.6S
SAXON HARBOR     0530   31      CALM  /  2 1015.6S
$$

LMZ867-665-643>646-200700-
LAKE MICHIGAN

STATION/POSITION TIME  TEMP    WIND        PRES    WAVE
                       AIR SEA DIR/SP/G            HT/PER
                 (UTC) (F)     (DEG/KT/KT) (MB)    (FT/S)
CHAMBERS ISLAND  0540   30      CALM  /  2 1020.7R
NORTHPORT PIER   0540   36     160/  3/  5 1021.7R
SISTER BAY       0505   39     120/  9/ 13   N/A
ALGOMA LAKESHORE 0525



USA.gov is the U.S. government's official web portal to all federal, state and local government web resources and services.